[[{"header":{"parameterUnit":"m.s-1","parameterCategory":1,"la1":30.2991,"la2":30.254,"lo1":-89.0895,"lo2":-89.0444,"dy":0.0017,"dx":0.0017,"nx":28,"ny":28,"refTime":"2023-10-23T09:00:00:Z","depth":0,"parameterNumber":2,"parameterNumberName":"U-component_of_WINDS"},"data":[0,0,0,0,0,0,0,0,0,0,0,0,0,0,0,0,0,0,0,0,0,0,0,0,0,0,0,0,0,0,0,0,0,0,0,0,0,0,0,0,0,0,0,0,0,0,0,0,0,0,0,0,0,0,0,0,0,0,-6.6086,-6.6086,0,-6.609,-6.609,-6.609,-6.597,-6.5967,-6.5964,-6.5961,-6.5964,-6.5967,-6.597,0,0,0,0,0,0,0,0,0,0,0,0,0,-6.5977,-6.598,-6.6086,-6.6086,-6.6086,-6.609,-6.609,-6.609,-6.597,-6.5967,-6.5963,-6.5959,-6.5963,-6.5966,-6.597,0,0,0,0,0,0,0,0,0,0,0,0,0,-6.6007,-6.598,-6.6086,-6.6027,-6.6022,-6.609,-6.609,-6.609,-6.5971,-6.5966,-6.5962,-6.5957,-6.5961,-6.5966,-6.597,-6.6095,0,0,-6.5984,-6.5986,0,0,0,0,0,0,0,0,-6.6005,-6.6011,-6.6036,-6.6031,-6.6025,-6.6024,-6.6052,-6.6092,-6.5973,-6.599,-6.596,-6.5955,-6.5988,-6.599,-6.6001,-6.6095,-6.6095,-6.5985,-6.5988,-6.599,-6.5991,0,0,0,0,0,0,0,-6.6004,-6.601,-6.6087,-6.6036,-6.603,-6.6001,-6.6,-6.6059,-6.6016,-6.5988,-6.598,-6.5982,-6.5984,-6.5997,-6.6,-6.6095,-6.5985,-6.5989,-6.5992,-6.5993,-6.6294,-6.6299,0,0,0,0,0,0,-6.6009,-6.6009,-6.6087,-6.6087,-6.6003,-6.6007,-6.6006,-6.603,-6.6015,-6.6008,-6.5986,-6.5976,-6.5991,-6.5995,-6.6,-6.6145,-6.599,-6.5994,-6.5997,-6.6289,-6.6295,-6.6301,0,0,0,0,0,0,-6.6008,-6.6018,-6.6087,-6.6046,-6.6053,-6.6014,-6.6042,-6.6032,-6.6045,-6.6013,-6.6005,-6.6007,-6.5988,-6.5993,-6.6073,-6.6143,-6.5996,-6.6,-6.6282,-6.6291,-6.6298,-6.6436,0,0,0,0,0,0,-6.6005,-6.6018,-6.6063,-6.6048,-6.6055,-6.6159,-6.6046,-6.6036,-6.6053,-6.6041,-6.6031,-6.6024,-6.5984,-6.6066,-6.6077,-6.6147,-6.6004,-6.6276,-6.6286,-6.6295,-6.6425,-6.6447,-6.6467,0,0,0,0,0,-6.6001,-6.6101,-6.6066,-6.6076,-6.6112,-6.6164,-6.6168,-6.612,-6.6059,-6.6106,-6.6086,-6.6025,-6.6135,-6.6076,-6.6087,-6.6159,-6.6271,-6.6283,-6.6295,-6.6415,-6.6443,-6.6466,0,0,0,0,0,0,-6.6124,-6.6098,-6.6059,-6.6157,-6.6164,-6.6143,-6.6199,-6.6151,-6.6174,-6.6161,-6.6101,-6.61,-6.6189,-6.6182,-6.6117,-6.628,-6.6192,-6.6207,-6.628,-6.6306,-6.6327,-6.6325,-6.6008,0,0,0,0,0,-6.6164,-6.6208,-6.6182,-6.6271,-6.6277,-6.6239,-6.6259,-6.6223,-6.6227,-6.6229,-6.6214,-6.6221,-6.6257,-6.6282,-6.6313,-6.6425,-6.6421,-6.648,-6.6502,-6.6519,-6.6531,-6.6591,-6.6617,-6.6339,-6.6339,-6.6339,0,0,-6.6243,-6.6235,-6.6265,-6.6296,-6.6296,-6.6344,-6.6241,-6.6295,-6.633,-6.6236,-6.631,-6.6301,-6.6305,-6.6401,-6.6443,-6.6398,-6.6608,-6.6534,-6.6548,-6.6551,-6.6606,-6.6632,-6.6656,-6.6347,-6.6346,-6.6344,0,0,-6.6412,-6.6411,-6.6485,-6.6489,-6.6493,-6.6467,-6.6486,-6.6474,-6.6465,-6.6538,-6.647,-6.6511,-6.6575,-6.658,-6.6592,-6.677,-6.6714,-6.6782,-6.6891,-6.695,-6.6972,-6.6991,-6.7054,-6.7077,-6.6795,-6.6796,-6.6796,0,-6.651,-6.6579,-6.6529,-6.6589,-6.6605,-6.6525,-6.6601,-6.6607,-6.6621,-6.6634,-6.6584,-6.6664,-6.6661,-6.6758,-6.6802,-6.6814,-6.6834,-6.6781,-6.6973,-6.6991,-6.7008,-6.7068,-6.7092,-6.6804,-6.6803,-6.6802,-6.6801,0,-6.67,-6.6749,-6.6809,-6.6826,-6.6849,-6.6916,-6.6878,-6.6908,-6.6871,-6.6851,-6.6929,-6.6923,-6.6953,-6.6974,-6.6938,-6.7068,-6.704,-6.6983,-6.6893,-6.7044,-6.7098,-6.7121,-6.6815,-6.6812,-6.681,-6.6808,0,0,-6.6941,-6.6934,-6.6956,-6.6964,-6.6964,-6.7001,-6.7067,-6.7097,-6.7124,-6.7138,-6.7191,-6.7249,-6.7197,-6.7211,-6.7175,-6.7228,-6.7369,-6.7164,-6.7163,-6.7201,-6.7512,-6.7553,-6.758,-6.7335,-6.7339,-6.7342,-6.7512,0,-6.7104,-6.7214,-6.7174,-6.7287,-6.7333,-6.7261,-6.7318,-6.7325,-6.731,-6.7347,-6.7331,-6.7373,-6.7301,-6.7309,-6.7358,-6.7342,-6.7431,-6.7329,-6.7383,-6.7385,-6.7381,-6.7609,-6.7652,-6.7812,-6.7533,-6.7536,-6.7539,0,-6.7308,-6.7332,-6.745,-6.7446,-6.7463,-6.7515,-6.7541,-6.7578,-6.7586,-6.7572,-6.759,-6.7544,-6.7609,-6.7523,-6.7611,-6.7544,-6.7564,-6.756,-6.7565,-6.7566,-6.7469,-6.7614,-6.7862,-6.7885,-6.7572,-6.757,-6.7567,0,-6.7471,-6.7533,-6.7612,-6.7621,-6.7619,-6.7657,-6.7658,-6.7661,-6.7683,-6.7707,-6.7721,-6.7752,-6.7768,-6.7794,-6.7759,-6.7699,-6.7853,-6.7763,-6.7843,-6.7844,-6.7875,-6.7873,-6.8127,-6.7893,-6.7892,-6.7892,-6.7892,0,-6.7656,-6.7731,-6.7686,-6.7734,-6.7817,-6.7772,-6.7855,-6.7847,-6.7852,-6.7898,-6.784,-6.7884,-6.7836,-6.7877,-6.7851,-6.7928,-6.7937,-6.7927,-6.7918,-6.7931,-6.7932,-6.7941,-6.7928,-6.7898,-6.7897,-6.7896,-6.7895,0,-6.785,-6.7823,-6.7904,-6.7897,-6.7897,-6.7958,-6.7952,-6.7997,-6.798,-6.804,-6.8051,-6.8024,-6.807,-6.8039,-6.8084,-6.8066,-6.8168,-6.8145,-6.8165,-6.8158,-6.8238,-6.8231,-6.8505,-6.8539,-6.8285,-6.8288,-6.829,0,-6.7968,-6.8024,-6.8024,-6.8052,-6.8057,-6.8101,-6.8124,-6.8084,-6.811,-6.8127,-6.817,-6.8211,-6.8241,-6.8317,-6.8302,-6.8337,-6.8313,-6.8408,-6.8318,-6.8329,-6.8313,-6.8309,-6.8315,-6.8424,-6.8427,-6.843,-6.8432,0,-6.8181,-6.8166,-6.8201,-6.8234,-6.8264,-6.8287,-6.8305,-6.8331,-6.8291,-6.8324,-6.8371,-6.8395,-6.8442,-6.8484,-6.8514,-6.8515,-6.8467,-6.8461,-6.8481,-6.8492,-6.8501,-6.8496,-6.8212,-6.8454,-6.8451,-6.845,-6.8449,-6.8448,-6.8339,-6.8386,-6.8395,-6.8437,-6.8448,-6.8468,-6.851,-6.85,-6.8539,-6.8574,-6.8549,-6.8605,-6.8615,-6.865,-6.8658,-6.8702,-6.8663,-6.8692,-6.8699,-6.8706,-6.8717,-6.8497,-6.8707,-6.8707,-6.8706,-6.8705,-6.8705,0,-6.8547,-6.8551,-6.8591,-6.862,-6.8654,-6.8609,-6.8628,-6.866,-6.871,-6.8724,-6.8756,-6.8811,-6.8852,-6.8842,-6.8879,-6.8916,-6.8895,-6.8927,-6.8922,-6.8924,-6.875,-6.8728,-6.8943,-6.8943,-6.8943,-6.8943,-6.8943,-6.8943,-6.8659,-6.8738,-6.8725,-6.8809,-6.8811,-6.8866,-6.8881,-6.89,-6.8911,-6.8975,-6.9009,-6.9003,-6.9008,-6.9046,-6.9083,-6.9079,-6.9095,-6.9134,-6.9123,-6.8959,-6.8936,-6.8913,-6.8892,-6.9139,-6.9139,-6.9292,-6.9294,-6.9295]},{"header":{"parameterUnit":"m.s-1","parameterCategory":1,"la1":30.2991,"la2":30.254,"lo1":-89.0895,"lo2":-89.0444,"dy":0.0017,"dx":0.0017,"nx":28,"ny":28,"refTime":"2023-10-23T09:00:00:Z","depth":0,"parameterNumber":3,"parameterNumberName":"V-component_of_WINDS"},"data":[0,0,0,0,0,0,0,0,0,0,0,0,0,0,0,0,0,0,0,0,0,0,0,0,0,0,0,0,0,0,0,0,0,0,0,0,0,0,0,0,0,0,0,0,0,0,0,0,0,0,0,0,0,0,0,0,0,0,3.3374,3.3373,0,3.3281,3.328,3.3279,3.3189,3.3188,3.3187,3.3186,3.3085,3.3083,3.3082,0,0,0,0,0,0,0,0,0,0,0,0,0,3.347,3.3468,3.3374,3.3373,3.3372,3.3282,3.328,3.3279,3.3189,3.3188,3.3186,3.3185,3.3085,3.3083,3.3081,0,0,0,0,0,0,0,0,0,0,0,0,0,3.3408,3.3468,3.3374,3.3316,3.331,3.3282,3.328,3.3279,3.3189,3.3188,3.3186,3.3184,3.3086,3.3084,3.3081,3.3101,0,0,3.3074,3.3073,0,0,0,0,0,0,0,0,3.3411,3.3404,3.3326,3.332,3.3313,3.3245,3.3277,3.3219,3.319,3.3235,3.3186,3.3184,3.3139,3.3132,3.3118,3.3096,3.3092,3.3074,3.3072,3.3071,3.307,0,0,0,0,0,0,0,3.3416,3.3408,3.3337,3.3325,3.3317,3.3294,3.3283,3.3265,3.3198,3.3231,3.3224,3.3215,3.3135,3.3121,3.3115,3.309,3.3074,3.3071,3.307,3.3069,3.3082,3.3084,0,0,0,0,0,0,3.3429,3.3412,3.334,3.3334,3.3359,3.3293,3.3281,3.3269,3.3198,3.3185,3.3216,3.3211,3.3126,3.3118,3.3111,3.3131,3.3071,3.3069,3.3067,3.3081,3.3083,3.3085,0,0,0,0,0,0,3.3432,3.3424,3.3344,3.3371,3.3359,3.3294,3.328,3.3268,3.3253,3.3187,3.3174,3.3215,3.3124,3.3115,3.3105,3.3126,3.3068,3.3065,3.3078,3.3081,3.3084,3.3171,0,0,0,0,0,0,3.3435,3.3425,3.3433,3.3372,3.3358,3.334,3.3281,3.3267,3.325,3.3242,3.3181,3.317,3.3122,3.3109,3.3103,3.3122,3.3064,3.3076,3.308,3.3083,3.3165,3.3176,3.3185,0,0,0,0,0,3.3439,3.3459,3.3433,3.3425,3.3366,3.3342,3.3333,3.328,3.3252,3.3259,3.3217,3.3172,3.3126,3.3109,3.3101,3.312,3.3075,3.3079,3.3083,3.3161,3.3174,3.3185,0,0,0,0,0,0,3.352,3.3449,3.3421,3.3422,3.3389,3.3326,3.3332,3.3295,3.3267,3.326,3.3194,3.3181,3.3179,3.3148,3.3131,3.3137,3.3094,3.3097,3.3157,3.3168,3.3178,3.3184,3.3062,0,0,0,0,0,3.3539,3.3526,3.3465,3.3472,3.3457,3.3398,3.3385,3.3348,3.331,3.3294,3.3251,3.3215,3.3193,3.3179,3.3154,3.3162,3.3147,3.3171,3.3181,3.3189,3.3191,3.3195,3.3205,3.3098,3.3098,3.3098,0,0,3.3576,3.3536,3.3531,3.3487,3.3457,3.3445,3.3387,3.3375,3.3365,3.3292,3.3281,3.3249,3.3204,3.3204,3.3201,3.3178,3.3218,3.3194,3.3201,3.3199,3.32,3.321,3.3219,3.3101,3.31,3.31,0,0,3.3637,3.3606,3.3609,3.3582,3.3538,3.35,3.3501,3.3445,3.3422,3.3411,3.3357,3.3343,3.3306,3.3277,3.3257,3.3313,3.3271,3.3307,3.3357,3.3361,3.3369,3.3377,3.3397,3.3405,3.331,3.331,3.331,0,3.3688,3.3669,3.3615,3.3609,3.3591,3.3528,3.3531,3.3506,3.3456,3.3445,3.3421,3.3375,3.334,3.3333,3.3348,3.3334,3.3333,3.3312,3.3373,3.338,3.3385,3.3404,3.3412,3.3315,3.3314,3.3314,3.3313,0,3.3734,3.3722,3.373,3.3687,3.367,3.3669,3.3615,3.3604,3.357,3.3534,3.3525,3.3481,3.3448,3.3444,3.3408,3.3433,3.342,3.3386,3.3341,3.3401,3.3418,3.3425,3.3322,3.332,3.3318,3.3317,0,0,3.384,3.3772,3.3775,3.3756,3.3706,3.3695,3.3691,3.3661,3.3654,3.3623,3.3618,3.359,3.3559,3.3537,3.3498,3.3502,3.3551,3.3467,3.3465,3.3484,3.3577,3.3603,3.3613,3.3524,3.3525,3.3526,3.3581,0,3.3893,3.3884,3.3838,3.3842,3.3831,3.3773,3.377,3.3739,3.3706,3.3691,3.3654,3.3636,3.3596,3.3583,3.3585,3.3545,3.3569,3.354,3.3518,3.3518,3.353,3.3621,3.3648,3.3701,3.3587,3.3588,3.3589,0,3.3952,3.3929,3.3933,3.3886,3.3879,3.3877,3.3848,3.3835,3.3799,3.3775,3.3754,3.3711,3.3704,3.3665,3.3654,3.3636,3.3624,3.3604,3.3605,3.36,3.3556,3.3618,3.3717,3.3725,3.3599,3.3598,3.3597,0,3.4031,3.3999,3.3998,3.3984,3.3929,3.3929,3.3906,3.3868,3.3855,3.3829,3.382,3.3793,3.3778,3.3758,3.371,3.3686,3.3706,3.3661,3.3685,3.3687,3.369,3.369,3.3789,3.3684,3.3684,3.3684,3.3684,0,3.4094,3.4098,3.4033,3.4032,3.4037,3.3984,3.399,3.396,3.3929,3.3921,3.3869,3.3863,3.38,3.3787,3.3749,3.3747,3.374,3.3721,3.3711,3.3725,3.3728,3.3715,3.371,3.3686,3.3686,3.3685,3.3685,0,3.418,3.4137,3.4132,3.4082,3.407,3.4075,3.4032,3.4029,3.3996,3.3987,3.3982,3.3928,3.3911,3.3862,3.383,3.3805,3.3813,3.3794,3.3826,3.382,3.3846,3.3845,3.3939,3.395,3.384,3.3841,3.3842,0,3.4223,3.4226,3.4178,3.417,3.415,3.4138,3.4125,3.4075,3.4063,3.4025,3.4027,3.4006,3.3986,3.396,3.3918,3.3894,3.3874,3.391,3.387,3.3886,3.3875,3.3875,3.3876,3.3917,3.3919,3.392,3.3921,0,3.4304,3.4283,3.4267,3.4246,3.4232,3.4212,3.4188,3.4185,3.4128,3.4118,3.4101,3.4086,3.4056,3.4036,3.4007,3.3981,3.3942,3.3935,3.3939,3.3953,3.3972,3.3962,3.3849,3.3932,3.3931,3.393,3.3929,3.3929,3.4369,3.437,3.4338,3.4323,3.4301,3.4281,3.4277,3.4245,3.423,3.4203,3.4174,3.4161,3.4127,3.4085,3.4063,3.4051,3.403,3.4036,3.4038,3.404,3.4047,3.3975,3.4046,3.4045,3.4045,3.4045,3.4044,0,3.4448,3.4425,3.4412,3.4383,3.4371,3.4339,3.4312,3.4304,3.4294,3.4267,3.425,3.4232,3.4213,3.4171,3.4149,3.4148,3.4129,3.4143,3.4142,3.4137,3.4067,3.4066,3.4159,3.4159,3.4159,3.4159,3.4159,3.4159,3.4487,3.4488,3.4464,3.4454,3.443,3.4419,3.4407,3.4389,3.4367,3.435,3.4335,3.4309,3.4277,3.4252,3.4234,3.4222,3.4216,3.4236,3.4218,3.4153,3.4142,3.4132,3.413,3.4235,3.4235,3.429,3.429,3.4291]}]]